Tracking 20242 objects as of 24-Jan-2020
HD Live streaming from Space Station
objects crossing your sky now

COSMOS 2251 DEB

Track COSMOS 2251 DEB now!
10-day predictions


NORAD ID: 37501
Int'l Code: 1993-036BME
Perigee: 588.7 km
Apogee: 671.9 km
Inclination: 74.0 °
Period: 97.2 minutes
Semi major axis: 7001 km
RCS: 0.003 m2 (small)
Launch date: June 16, 1993
Source: Commonwealth of Independent States (former USSR) (CIS)
Launch site: PLESETSK MISSILE AND SPACE COMPLEX (PKMTR)

Note: This is SATELLITE DEBRIS
aabbcc
Your satellite tracking list
Your tracking list is empty




NASA's NSSDC Master Catalog

Two Line Element Set (TLE):
1 37501U 93036BME 20023.18611124 +.00001186 +00000-0 +14977-3 0  9995
2 37501 074.0029 187.2956 0059435 159.1688 201.1932 14.81955624281826
Source of the keplerian elements: AFSPC